Grayling, MI

5:29 PM EDT on May 23, 2017 (GMT -0400)
Grayling

Weather History for KGOV - August, 2013

Change the Weather History Date:

Saturday, August 17, 2013

  Actual Average (KHTL) Record (KHTL)
Temperature  
Mean Temperature 62 °F -  
Max Temperature 82 °F 76 °F 94 °F (1925)
Min Temperature 41 °F 55 °F 34 °F (1924)
Degree Days  
Heating Degree Days 4    
Growing Degree Days 12 (Base 50)    
Moisture  
Dew Point 48 °F    
Average Humidity 64    
Maximum Humidity 100    
Minimum Humidity 27    
Precipitation  
Precipitation 0.00 in - - ()
Sea Level Pressure  
Sea Level Pressure 30.24 in    
Wind  
Wind Speed 1 mph (SW)    
Max Wind Speed 9 mph    
Max Gust Speed -    
Visibility 9 miles    
Events Fog    
Averages and records for this station are not official NWS values.
T = Trace of Precipitation, MM = Missing Value Source: NWS Daily Summary

Daily Weather History Graph

Daily Weather History Graph

Search for Another Location

Airport or City:

Trip Planner

Search our weather history database for the weather conditions in past years. The results will help you decide how hot, cold, wet, or windy it might be!

Date:

Astronomy

Aug. 17, 2013 Rise Set
Actual Time 6:43 AM EDT 8:41 PM EDT
Civil Twilight 6:12 AM EDT 9:12 PM EDT
Nautical Twilight 5:33 AM EDT 9:50 PM EDT
Astronomical Twilight 4:51 AM EDT 10:32 PM EDT
Moon 5:59 PM EDT (8/17) 2:41 AM EDT (8/17)
Length of Visible Light 14h 59m
Length of Day
13h 57m
Waxing Gibbous, 84% of the Moon is Illuminated
Aug 17
Waxing Gibbous
Aug 20
Full
Aug 28
Last Quarter
Sep 5
New
Sep 12
First Quarter

Hourly Weather History & Observations

Time (EDT) Temp. Dew Point Humidity Pressure Visibility Wind Dir Wind Speed Gust Speed Precip Events Conditions
12:15 AM 55.9 °F 53.4 °F 91% 30.23 in 10.0 mi Calm Calm - N/A   Clear
12:35 AM 55.9 °F 52.9 °F 89% 30.23 in 10.0 mi Calm Calm - N/A   Clear
12:55 AM 53.6 °F 52.2 °F 95% 30.23 in 10.0 mi Calm Calm - N/A   Clear
1:15 AM 53.6 °F 52.3 °F 95% 30.23 in 10.0 mi Calm Calm - N/A   Clear
1:35 AM 53.6 °F 53.4 °F 99% 30.24 in 7.0 mi Calm Calm - N/A   Clear
1:55 AM 50.2 °F 49.8 °F 99% 30.24 in 10.0 mi Calm Calm - N/A   Clear
2:15 AM 49.6 °F 48.7 °F 97% 30.24 in 10.0 mi Calm Calm - N/A   Clear
2:35 AM 49.5 °F 49.5 °F 100% 30.24 in 10.0 mi Calm Calm - N/A   Clear
2:55 AM 48.4 °F 48.2 °F 99% 30.24 in 5.0 mi Calm Calm - N/A   Clear
3:15 AM 48.4 °F 48.2 °F 99% 30.25 in 7.0 mi Calm Calm - N/A   Clear
3:35 AM 48.4 °F 48.0 °F 99% 30.24 in 10.0 mi Calm Calm - N/A   Clear
3:55 AM 48.4 °F 47.7 °F 97% 30.25 in 10.0 mi Calm Calm - N/A   Clear
4:14 AM 47.8 °F 47.7 °F 99% 30.25 in 10.0 mi Calm Calm - N/A   Clear
4:35 AM 46.0 °F 46.0 °F 100% 30.25 in 1.5 mi Calm Calm - N/A   Mist
4:55 AM 43.5 °F 43.5 °F 100% 30.26 in 7.0 mi Calm Calm - N/A   Clear
5:14 AM 43.7 °F 43.5 °F 99% 30.25 in 10.0 mi Calm Calm - N/A   Clear
5:35 AM 44.6 °F 44.1 °F 98% 30.25 in 0.5 mi Calm Calm - N/A Fog Fog
5:54 AM 45.5 °F 45.3 °F 99% 30.26 in 5.0 mi Calm Calm - N/A   Clear
6:15 AM 44.2 °F 44.1 °F 99% 30.26 in 1.5 mi Calm Calm - N/A   Mist
6:35 AM 43.2 °F 43.2 °F 100% 30.27 in 0.8 mi Calm Calm - N/A   Mist
6:54 AM 41.9 °F 41.9 °F 100% 30.27 in 0.2 mi Calm Calm - N/A Fog Fog
7:15 AM 43.5 °F 43.3 °F 99% 30.28 in 7.0 mi Calm Calm - N/A   Clear
7:35 AM 48.2 °F 47.5 °F 97% 30.28 in 10.0 mi Calm Calm - N/A   Clear
7:54 AM 48.4 °F 47.5 °F 97% 30.28 in 10.0 mi Calm Calm - N/A   Clear
8:15 AM 51.6 °F 49.8 °F 94% 30.28 in 10.0 mi Calm Calm - N/A   Clear
8:35 AM 53.8 °F 50.2 °F 88% 30.28 in 10.0 mi Calm Calm - N/A   Clear
8:54 AM 57.6 °F 52.0 °F 82% 30.28 in 10.0 mi Calm Calm - N/A   Clear
9:15 AM 61.5 °F 53.4 °F 75% 30.28 in 10.0 mi Calm Calm - N/A   Clear
9:35 AM 65.5 °F 55.0 °F 69% 30.28 in 10.0 mi Calm Calm - N/A   Clear
9:54 AM 68.5 °F 54.9 °F 62% 30.28 in 10.0 mi Calm Calm - N/A   Clear
10:15 AM 69.3 °F 54.1 °F 59% 30.28 in 10.0 mi SW 3.5 mph - N/A   Clear
10:35 AM 73.6 °F 53.4 °F 49% 30.28 in 10.0 mi Calm Calm - N/A   Clear
10:55 AM 73.8 °F 51.4 °F 45% 30.28 in 10.0 mi SSW 5.8 mph - N/A   Clear
11:15 AM 76.1 °F 51.4 °F 42% 30.28 in 10.0 mi WSW 6.9 mph - N/A   Clear
11:35 AM 76.3 °F 49.6 °F 39% 30.29 in 10.0 mi SW 5.8 mph - N/A   Clear
11:55 AM 78.4 °F 47.8 °F 34% 30.28 in 10.0 mi SSW 3.5 mph - N/A   Clear
12:15 PM 78.8 °F 47.5 °F 33% 30.28 in 10.0 mi SSW 4.6 mph - N/A   Clear
12:34 PM 78.8 °F 46.6 °F 32% 30.27 in 10.0 mi SW 9.2 mph - N/A   Clear
12:55 PM 79.9 °F 46.8 °F 31% 30.27 in 10.0 mi West 5.8 mph - N/A   Clear
1:15 PM 79.5 °F 45.3 °F 30% 30.26 in 10.0 mi NW 3.5 mph - N/A   Clear
1:34 PM 80.2 °F 45.9 °F 30% 30.26 in 10.0 mi West 5.8 mph - N/A   Clear
1:55 PM 79.3 °F 45.5 °F 30% 30.26 in 10.0 mi SW 6.9 mph - N/A   Scattered Clouds
2:15 PM 80.1 °F 45.7 °F 30% 30.25 in 10.0 mi SW 5.8 mph - N/A   Mostly Cloudy
2:34 PM 81.1 °F 45.5 °F 28% 30.25 in 10.0 mi WSW 3.5 mph - N/A   Scattered Clouds
2:55 PM 81.9 °F 45.0 °F 27% 30.24 in 10.0 mi West 5.8 mph - N/A   Clear
3:15 PM 82.2 °F 45.1 °F 27% 30.24 in 10.0 mi SW 6.9 mph - N/A   Clear
3:34 PM 81.3 °F 45.1 °F 28% 30.23 in 10.0 mi West 9.2 mph - N/A   Clear
3:55 PM 81.7 °F 45.0 °F 27% 30.23 in 10.0 mi SW 8.1 mph - N/A   Clear
4:15 PM 81.0 °F 45.7 °F 29% 30.22 in 10.0 mi West 4.6 mph - N/A   Clear
4:34 PM 81.1 °F 45.7 °F 29% 30.22 in 10.0 mi WSW 6.9 mph - N/A   Clear
4:55 PM 79.3 °F 45.9 °F 31% 30.22 in 10.0 mi SW 3.5 mph - N/A   Clear
5:15 PM 81.7 °F 46.0 °F 29% 30.21 in 10.0 mi South 5.8 mph - N/A   Clear
5:34 PM 78.8 °F 44.8 °F 30% 30.21 in 10.0 mi SSW 3.5 mph - N/A   Clear
5:55 PM 79.0 °F 45.5 °F 31% 30.21 in 10.0 mi Calm Calm - N/A   Clear
6:15 PM 79.5 °F 46.2 °F 31% 30.21 in 10.0 mi SSE 4.6 mph - N/A   Scattered Clouds
6:34 PM 81.3 °F 45.7 °F 28% 30.21 in 10.0 mi South 6.9 mph - N/A   Mostly Cloudy
6:55 PM 80.4 °F 45.7 °F 29% 30.20 in 10.0 mi Calm Calm - N/A   Mostly Cloudy
7:15 PM 78.8 °F 47.3 °F 33% 30.21 in 10.0 mi Calm Calm - N/A   Scattered Clouds
7:35 PM 76.3 °F 46.8 °F 35% 30.20 in 10.0 mi Calm Calm - N/A   Scattered Clouds
7:55 PM 73.6 °F 50.7 °F 45% 30.20 in 10.0 mi Calm Calm - N/A   Scattered Clouds
8:15 PM 73.6 °F 49.5 °F 43% 30.20 in 10.0 mi Calm Calm - N/A   Scattered Clouds
8:35 PM 72.9 °F 52.9 °F 49% 30.20 in 10.0 mi SSW 3.5 mph - N/A   Clear
8:55 PM 68.2 °F 51.4 °F 55% 30.21 in 10.0 mi NW 8.1 mph - N/A   Scattered Clouds
9:15 PM 71.4 °F 50.2 °F 47% 30.22 in 10.0 mi NW 5.8 mph - N/A   Scattered Clouds
9:35 PM 69.3 °F 49.5 °F 49% 30.23 in 10.0 mi Calm Calm - N/A   Scattered Clouds
9:55 PM 66.2 °F 51.6 °F 59% 30.23 in 10.0 mi Calm Calm - N/A   Clear
10:14 PM 63.0 °F 50.0 °F 63% 30.23 in 10.0 mi Calm Calm - N/A   Clear
10:35 PM 60.4 °F 50.2 °F 69% 30.23 in 10.0 mi Calm Calm - N/A   Clear
10:55 PM 55.9 °F 48.7 °F 77% 30.23 in 10.0 mi Calm Calm - N/A   Clear
11:14 PM 56.3 °F 50.2 °F 80% 30.23 in 10.0 mi Calm Calm - N/A   Clear
11:35 PM 55.9 °F 50.7 °F 83% 30.23 in 10.0 mi Calm Calm - N/A   Clear
11:55 PM 54.0 °F 50.4 °F 88% 30.23 in 10.0 mi Calm Calm - N/A   Clear